Simultaneous Nadir Overpasses (SNOs) Predictions

Prediction of SNOs between METOP-B and TERRA Satellite Orbit:

Table of predicted SNOs for the next 14.0 days since TLE Epoch: 10/19/2013
Index Date (METOP-B) Time (METOP-B) Lat,Lon (METOP-B) SZA (METOP-B ) Date (TERRA) Time (TERRA) Lat,Lon (TERRA) SZA (TERRA ) Distance(km) Time Diff (sec)
1 10/21/2013 11:49:14 81.31, 49.84 95.29 10/21/2013 11:49:28 81.32, 50.03 95.32 3.19 14
2 10/21/2013 12:39:52 -81.32,-142.07 84.61 10/21/2013 12:38:54 -81.33,-142.04 84.63 0.87 58
3 10/24/2013 07:23:32 81.32, 116.83 96.35 10/24/2013 07:23:44 81.33, 116.63 96.34 3.29 12
4 10/24/2013 08:14:12 -81.32, -75.83 83.64 10/24/2013 08:13:11 -81.32, -75.77 83.66 1.09 61
5 10/27/2013 02:57:53 81.32,-177.02 97.29 10/27/2013 02:58:04 81.32,-177.01 97.29 0.47 11
6 10
